Regional Weather Roundup
Issued by NWS

Home | Current Version | Previous Version | Graphics & Text | Print | Product List | Glossary On
Versions: 1 2 3 4 5 6 7 8 9 10 11 12 13 14 15 16 17 18 19 20 21 22 23 24 25 26 27
000
ASUS45 KBOU 231906
RWRCO

WEATHER ROUNDUP FOR COLORADO
NATIONAL WEATHER SERVICE DENVER/BOULDER CO
100 PM MDT WED APR 23 2014

NOTE: "FAIR" INDICATES FEW OR NO CLOUDS BELOW 12000 FEET WITH NO
SIGNIFICANT WEATHER AND/OR OBSTRUCTIONS TO VISIBILITY.

COZ001>005-013-030-031-232000-
...NORTHWEST COLORADO...

CITY           SKY/WX    TMP DP  RH WIND       PRES   REMARKS
CRAIG          CLOUDY    42  29  59 VRB3      29.91F
HAYDEN         PTSUNNY   39  28  65 NW12G17   29.93S
MEEKER         CLOUDY    49  21  33 NW14G21   29.89S
MOUNT WERNER   CLOUDY   N/A N/A N/A W13G23    29.94R VSB<1/4
STEAMBOAT SPGS PTSUNNY   42  26  51 SW16G22   29.88S
WALDEN         CLOUDY    43  23  45 W15G21    29.85S
$$

COZ006>008-011-232000-
...WEST CENTRAL VALLEYS...

CITY           SKY/WX    TMP DP  RH WIND       PRES   REMARKS
GRAND JUNCTION PTSUNNY   57  17  21 NW21      29.85F
MONTROSE       PTSUNNY   59  20  22 NW18G29   29.84F
EAGLE          MOSUNNY   54  21  28 S20       29.83S
RIFLE          PTSUNNY   56  18  22 NW13G22   29.82F
DELTA          NOT AVBL
NUCLA          NOT AVBL
$$

COZ017>023-064>068-232000-
...SOUTHWEST COLORADO...

CITY           SKY/WX    TMP DP  RH WIND       PRES   REMARKS
DURANGO        PTSUNNY   58  14  17 SW15G26   29.86F
CORTEZ         PTSUNNY   61  12  14 W17G30    29.86R
PAGOSA SPRINGS PTSUNNY   56   8  15 SW14G23   29.89F
TELLURIDE      CLOUDY    48  12  23 W6G18     29.90F
WOLF CREEK PAS PTSUNNY   32  14  47 SW35G46   29.98S WCI  17
$$

COZ009-010-012-014-032>034-037-058>063-232000-
...CENTRAL COLORADO...

CITY           SKY/WX    TMP DP  RH WIND       PRES   REMARKS
ASPEN          PTSUNNY   50  20  30 NE13      29.83F
BUENA VISTA    PTSUNNY   58  10  15 W21       29.78F
COPPER MTN     PTSUNNY   36  19  51 W17G29    29.94F
BERTHOUD PASS  FAIR      30  21  69 W20       29.95R WCI  18
COTTONWOOD PAS PTSUNNY   54  10  17 N6G18     29.87F
GUNNISON       PTSUNNY   54  16  22 W16G24    29.86S
KREMMLING      PTSUNNY   50  21  32 NW7G16    29.84F
LEADVILLE      PTSUNNY   42  12  29 SW15G25   29.86F
MONARCH PASS   CLOUDY    34  18  51 W28G37    30.05F WCI  20
SALIDA         PTSUNNY   60  17  19 SW16G28   29.86F
SUNLIGHT       PTSUNNY   36  23  60 W3        29.94S
WILKERSON PASS MOSUNNY   46  16  29 SW9G21    29.92F
$$

COZ069>075-232000-
...SAN LUIS VALLEY/SANGRE DE CRISTO MOUNTAINS...

CITY           SKY/WX    TMP DP  RH WIND       PRES   REMARKS
ALAMOSA        MOSUNNY   63  16  16 SW21G30   29.80F
LA VETA PASS   PTSUNNY   46  19  34 SW18G36   29.88F
SAGUACHE       CLOUDY    57  18  21 N14G20    29.80F
$$

COZ035-036-038>040-232000-
...NORTHERN COLORADO FRONT RANGE...

CITY           SKY/WX    TMP DP  RH WIND       PRES   REMARKS
DENVER INTL AP PTSUNNY   71  30  21 E16G23    29.60F
DMNS CITY PARK   N/A     72  20  14 NE12      29.58F
AURORA         MOSUNNY   72  19  14 SE2       29.63F
FRONT RANGE AP PTSUNNY   72  28  20 E8        29.62F
ERIE MUNI ARPT SUNNY     71  25  18 W17G31    29.60F
BOULDER MUN AP PTSUNNY   64  27  24 W24G38    29.59F
CENTENNIAL     PTSUNNY   70  21  15 SW12G21   29.63F
BROOMFIELD     MOSUNNY   68  28  22 W9        29.61F
FORT COLLINS   SUNNY     70  25  18 SW12      29.61F
LONGMONT       NOT AVBL
$$

COZ041-046-047-076>085-087-088-232000-
...PIKES PEAK/PALMER DIVIDE AND SOUTHERN FOOTHILLS...

CITY           SKY/WX    TMP DP  RH WIND       PRES   REMARKS
COLO. SPRINGS  MOSUNNY   71  20  14 SW12      29.65F
A. F. ACADEMY  MOSUNNY   68  17  14 W12G17    29.65F
ELLICOTT       NOT AVBL
FALCON         MOSUNNY   70  16  13 S10G18    29.69F
FORT CARSON    SUNNY     72  23  16 SW22G30   29.62F
LIMON          MOSUNNY   74  22  14 SW14G22   29.62F
MONUMENT HILL  PTSUNNY   63  25  23 W16       29.69F
TRINIDAD       SUNNY     77  16  10 SW24G40   29.67F
$$

COZ042>045-048>051-090-091-232000-
...NORTHEAST COLORADO...

CITY           SKY/WX    TMP DP  RH WIND       PRES   REMARKS
GREELEY ARPT   MOSUNNY   73  25  16 W6G25     29.60F
AKRON          SUNNY     70  37  29 N20G28    29.63S
BURLINGTON     PTSUNNY   81  25  12 SW18G25   29.58F
WRAY           PTSUNNY   76  35  22 N21G26    29.59F
STERLING       NOT AVBL
HOLYOKE        NOT AVBL
FORT MORGAN    NOT AVBL
$$

COZ086-089-092>099-232000-
...SOUTHEAST COLORADO...

CITY           SKY/WX    TMP DP  RH WIND       PRES   REMARKS
PUEBLO         SUNNY     78  20  11 W14       29.58F
LA JUNTA       SUNNY     81  19  10 SW14G24   29.58F
LAMAR          PTSUNNY   85  20   9 SW18G26   29.55F
SPRINGFIELD      N/A     80  34  19 S21G31    29.62F
$$



USA.gov is the U.S. government's official web portal to all federal, state and local government web resources and services.